TimeCDT,TemperatureF,Dew PointF,Humidity,Sea Level PressureIn,VisibilityMPH,Wind Direction,Wind SpeedMPH,Gust SpeedMPH,PrecipitationIn,Events,Conditions,WindDirDegrees,DateUTC
12:53 AM,34.0,33.1,96,29.99,10.0,Calm,Calm,-,N/A,,Clear,0,2013-05-05 05:53:00
1:53 AM,36.0,33.1,89,29.99,10.0,North,3.5,-,N/A,,Scattered Clouds,350,2013-05-05 06:53:00
2:53 AM,37.0,33.1,86,29.98,10.0,North,5.8,-,0.01,,Overcast,350,2013-05-05 07:53:00
3:53 AM,37.0,34.0,89,29.98,10.0,North,5.8,-,N/A,,Clear,350,2013-05-05 08:53:00
4:53 AM,36.0,34.0,93,29.98,10.0,North,4.6,-,N/A,,Clear,360,2013-05-05 09:53:00
5:53 AM,36.0,34.0,93,29.99,10.0,North,6.9,-,N/A,,Clear,360,2013-05-05 10:53:00
6:53 AM,36.0,35.1,97,30.00,10.0,NNW,6.9,-,N/A,,Clear,340,2013-05-05 11:53:00
7:53 AM,44.1,37.9,79,30.00,10.0,North,9.2,-,N/A,,Clear,360,2013-05-05 12:53:00
8:53 AM,46.9,37.9,71,30.00,10.0,North,9.2,-,N/A,,Clear,350,2013-05-05 13:53:00
9:53 AM,46.9,37.9,71,30.01,10.0,North,9.2,18.4,N/A,,Partly Cloudy,350,2013-05-05 14:53:00
10:53 AM,51.1,41.0,68,30.01,10.0,NW,11.5,16.1,N/A,,Overcast,320,2013-05-05 15:53:00
11:16 AM,50.0,41.0,71,29.99,10.0,WNW,9.2,16.1,N/A,,Overcast,300,2013-05-05 16:16:00
11:53 AM,53.1,43.0,69,29.99,10.0,NNW,10.4,-,N/A,,Overcast,330,2013-05-05 16:53:00
12:53 PM,51.1,43.0,74,29.99,10.0,WNW,9.2,-,N/A,,Overcast,300,2013-05-05 17:53:00
1:53 PM,51.1,46.0,83,29.99,6.0,NNW,10.4,-,0.00,Rain,Light Rain,330,2013-05-05 18:53:00
2:22 PM,48.2,46.4,93,29.98,4.0,NNW,9.2,-,0.01,,Overcast,330,2013-05-05 19:22:00
2:43 PM,50.0,46.4,87,29.98,4.0,NW,6.9,-,0.02,Rain,Light Rain,310,2013-05-05 19:43:00
2:47 PM,50.0,46.4,87,29.98,2.5,NW,9.2,-,0.02,Rain,Light Rain,320,2013-05-05 19:47:00
2:50 PM,50.0,46.4,87,29.98,1.8,NW,8.1,-,0.03,Rain,Light Rain,320,2013-05-05 19:50:00
2:53 PM,50.0,48.0,93,29.99,1.5,NW,10.4,-,0.03,Rain,Light Rain,320,2013-05-05 19:53:00
3:01 PM,50.0,48.2,94,29.98,2.0,NW,12.7,-,0.01,Rain,Light Rain,320,2013-05-05 20:01:00
3:14 PM,50.0,48.2,94,29.98,1.8,NW,6.9,-,0.03,Rain,Light Rain,310,2013-05-05 20:14:00
3:21 PM,50.0,48.2,94,29.98,1.2,NW,9.2,-,0.04,Rain,Light Rain,310,2013-05-05 20:21:00
3:44 PM,50.0,48.2,94,29.97,1.5,WNW,5.8,-,0.09,Rain,Light Rain,300,2013-05-05 20:44:00
4:12 PM,50.0,48.2,94,29.96,2.5,NW,10.4,-,0.02,Rain,Light Rain,310,2013-05-05 21:12:00
4:53 PM,50.0,48.9,96,29.97,2.0,WNW,8.1,-,0.05,Rain,Light Rain,300,2013-05-05 21:53:00
5:36 PM,50.0,48.2,94,29.95,3.0,WNW,5.8,-,0.01,Rain,Light Rain,300,2013-05-05 22:36:00
5:42 PM,50.0,48.2,94,29.95,3.0,WNW,9.2,-,0.01,Rain,Light Rain,300,2013-05-05 22:42:00
5:53 PM,50.0,48.9,96,29.96,4.0,WNW,5.8,-,0.02,,Overcast,290,2013-05-05 22:53:00
6:53 PM,51.1,48.9,92,29.96,10.0,NW,6.9,-,0.00,,Overcast,310,2013-05-05 23:53:00
7:53 PM,51.1,50.0,96,29.95,10.0,West,4.6,-,N/A,,Overcast,280,2013-05-06 00:53:00
8:34 PM,51.8,50.0,94,29.94,10.0,WNW,4.6,-,N/A,,Overcast,290,2013-05-06 01:34:00
8:53 PM,52.0,50.0,93,29.94,10.0,WNW,4.6,-,0.00,Rain,Light Rain,300,2013-05-06 01:53:00
9:40 PM,53.6,51.8,94,29.95,9.0,NW,4.6,-,0.01,Rain,Light Rain,310,2013-05-06 02:40:00
9:53 PM,53.1,51.1,93,29.96,10.0,NW,5.8,-,0.01,Rain,Light Rain,320,2013-05-06 02:53:00
10:21 PM,53.6,51.8,94,29.96,10.0,NW,10.4,16.1,0.00,,Overcast,320,2013-05-06 03:21:00
10:45 PM,53.6,51.8,94,29.96,9.0,NW,9.2,-,0.01,Rain,Light Rain,320,2013-05-06 03:45:00
10:53 PM,53.1,51.1,93,29.96,10.0,NNW,9.2,-,0.01,Rain,Light Rain,330,2013-05-06 03:53:00
11:12 PM,53.6,51.8,94,29.95,10.0,NW,8.1,-,0.00,,Overcast,310,2013-05-06 04:12:00
11:48 PM,53.6,51.8,94,29.95,10.0,NW,5.8,-,0.00,,Overcast,310,2013-05-06 04:48:00
11:53 PM,53.1,51.1,93,29.94,10.0,NW,6.9,-,0.00,,Overcast,310,2013-05-06 04:53:00